Погода Казанская

Погода Казанская : погода сейчас, прогноз погоды и архив. Всё, что Вы хотите узнать о погоде Казанская!

Хотите узнать прогноз погоды Казанская? Тогда Вам сюда: Погода Казанская

Поиск расширенной информации на нашем сайте:

Другие новости

Новости СМИ2

Главная страница сайта

Новости сайта

02.10.2013

Напоминаем, что на нашем новом сайте вы можете получить высокодетализированные прогнозы погоды по пунктам России, СНГ и мира (включающие важные для авиации метеовеличины, такие как направление и скорость ветра, видимость, явления погоды, количество и форма облачности, нижняя и верхняя граница облачности), а также ознакомиться с разнообразными материалами по авиационной метеорологии и подборкой полезных ссылок на эту тему.

Сайт Метеоцентр.Азия посвящён разработке технологий оптимизации авиаметеорологического обслуживания, включая проектирование и перспективное создание нескольких автоматизированных авиаметеорологических систем:
- система выпуска высокодетальных прогностических карт явлений погоды для нижнего воздушного пространства по России и ближнему зарубежью;
- система верификации прогнозов TAF (выпускаемых синоптиками официальных АМСГ РФ и ближнего зарубежья) и AUTOTAF (выпускаемых сайтом Метеоцентр.Азия) - выявление ошибок, онлайн-сопоставление с фактической погодой METAR, автоматическое внесение коррективов в прогнозы при резком отклонении фактической погоды от прогноза, подсчёт оправдываемости прогнозов по элементам и в целом;
- система обработки, анализа и отображения авиаметеорологической информации для применения провайдерами метеорологической информации.


Погода Казанская - сегодня

Время (UTC), дата Ветер
(°,м/с) 
Видим.   Явления Облачность Т
(°С)
Тd
(°С)
f(%) Тe
(°С)
Pmin
(гПа)
dP
(гПа)
Po
(мм)
O2
(г/м3)
Тmin Tmax R s Состояние
почвы
03 24.02.17 250 (З) 20000 м    10/0 верхняя 
[Cs]
+1.6 -0.6 85 -1  1004.6  2.8  747  299  +1.5      17  равномерный
мокрый или
старый снег
100% 
06 24.02.17 240 (ЮЗ) 4{10}  20000 м    10/0 верхняя 
[Cs]
+2.1 -1 80 1006.2  1.6  748  299  +1.5         
09 24.02.17 220 (ЮЗ) 20000 м    10/0 верхняя 
[Cs]
+3.4 -0.3 77 +1  1006.7  0.5  749  298           
12 24.02.17 130 (ЮВ) 1{10}  20000 м  {дождь}  10/0 средняя 
[As op]
+2.7 +1.3 90 +3  1005.6  -1.2  748  298           
15 24.02.17 190 (Ю) 20000 м    10/0 верхняя 
[Cs]
+3.6 +2.2 91 +1  1003.4  -2.1  746  296    +4.4  0.6     
18 24.02.17 200 (Ю) 5-11{13}  20000 м    10/10 600 м 
[Sc]
+4 +2.8 92 +2  1002.8  -0.6  746  296           
21 24.02.17 220 (ЮЗ) 6-12{15}  20000 м    9/9 600 м 
[Sc]
+4.4 +3.1 91 +2  1003.4  0.7  746  295           
00 25.02.17 220 (ЮЗ) 5-10{13}  20000 м    10/0 верхняя 
[Cs]
+4.3 +3.5 95 +2  1003.6  0.1  746  295           
03 25.02.17 240 (ЮЗ) 5{12}  10 км    10/10 600 м 
[Sc]
+3.8 +3.4 97 +1  1004.6  747  296  +3.6      10  равномерный
мокрый или
старый снег
100% 
06 25.02.17 230 (ЮЗ) 6-11{11}  2000 м  дымка  10/10 600 м 
[Sc]
+3.8 +3.4 97 +1  1004.8  0.2  747  296  +3.5         
09 25.02.17 250 (З) 3{11}  4000 м  дымка  10/10 600 м 
[Sc]
+4 +2.9 93 +3  1005.8  748  296           
12 25.02.17 260 (З) 4000 м  слаб. дождь  10/10 300 м 
[Frnb|Ns]
+3 +2 93 +2  1005.7  748  298           
15 25.02.17 270 (З) 4000 м  слаб. дождь  10/10 300 м 
[Frnb|Ns]
+0.7 +0.4 98 1005.7  748  300    +4.2     
18 25.02.17 300 (СЗ) 4000 м  дымка{снег, дождь}  10/10 300 м 
[Frnb]
-0.8 -1.8 93 -3  1008.1  2.3  749  303           
21 25.02.17 280 (З) 20000 м    ясно 
-2.1 -4.5 84 -4  1011.2  752  306           
00 26.02.17 270 (З) 20000 м    ясно 
-3.7 -6.5 81 -6  1013.3  753  308           
03 26.02.17 250 (З) 20000 м    ясно 
-4 -6.5 83 -6  1015.3  755  309  -4.1    равномерный
мокрый или
старый снег
100% 
06 26.02.17 250 (З) 20000 м    3/0 средняя 
[Ac trans]
-3.3 -6.2 80 -5  1017.3  756  309  -4.3         
09 26.02.17 270 (З) 5-13{13}  20000 м    9/8 600 м средняя 
[Sc|Ac trans]
-0.8 -4.8 74 -4  1018.3  1.1  757  306           
12 26.02.17 270 (З) 5-10{13}  20000 м    6/6 600 м 
[Sc]
+0.6 -6.3 60 -2  1019.1  0.8  758  305           
15 26.02.17 250 (З) 3-11{12}  20000 м    10/0 верхняя 
[Cs]
-0.9 -5.2 73 -3  1020.1  758  307    +0.9       
18 26.02.17 230 (ЮЗ) 20000 м    ясно 
-1.5 -5 77 -4  1020.4  0.3  759  308           
21 26.02.17 220 (ЮЗ) 20000 м    8/0 средняя 
[Ac trans]
-1 -4.2 79 -4  1019.5  0.3  758  307           
00 27.02.17 230 (ЮЗ) 20000 м    10/0 средняя 
[Ac As]
-0.7 -3.3 83 -3  1018.2  -1.2  757  306           
03 27.02.17 210 (ЮЗ) 5-10{11}  20000 м    ясно 
-1.9 -4.4 83 -5  1017.3  -0.9  756  307  -1.9      мокрый или
старый снег
50-90% 
Время (UTC), дата Ветер
(°,м/с) 
Видим.   Явления Облачность Т
(°С)
Тd
(°С)
f(%) Тe
(°С)
Pmin
(гПа)
dP
(гПа)
Po
(мм)
O2
(г/м3)
Тmin Tmax R s Состояние
почвы

Для получения пояснительной информации подведите курсор к названию столбца.

ПОГОДА Казанская - архив

Всё, что Вы хотите узнать о погоде Казанская - удобно и подробно!

Выберите нужную дату (начиная с 1 января 2015* года) и нажмите кнопку "Найти".
Будут отображены архивные сводки погоды по пункту Казанская, начиная с указанной даты.


Отображать данные в формате CSV (для использования в таблицах Excel)


Внимание! Наш архив погоды предназначен исключительно для личного некоммерческого использования в познавательных целях. Если Вам необходимы официальные справки о состоянии погоды (для производственных, юридических, коммерческих и т.п. целей), обращайтесь в органы Росгидромета.

*Примечание: данная дата относится к архиву по метеостанциям СССР (Россия, СНГ, Балтия).
Архив по метеостанциям Зарубежной Европы и Азии (кроме Китая) хранится 10 дней, по другим регионам земного шара (Китай, Африка, Америка, Австралия, Океания) - 1 день.

Казанская - район местоположения метеостанции


Название, широта, долгота, высота метеостанции:
Казанская 49.8°ш. 41.2°д. 72 м над ур. моря [Российская Федерация]

Дополнительная информация

В oтличие oт бoльшинства пoгoдных сайтoв мы публикуем пoдрoбную метеoинфoрмацию в детальнoм прoфессиoнальнoм фoрмате.

Характеристики температуры и влажнoсти вoздуха измеряются на высoте 2 м в тени вдали oт зданий и деревьев.
Скoрoсть ветра измеряется на высoте 10 м (на урoвне рoста челoвека скoрoсть ветра ниже в 1.5-2 раза). Если метеoстанция нахoдится в гoрoде или в лесу, тo скoрoсть ветра занижена на 2-4 м/с пo сравнению с oткрытым местoм. Скoрoсть ветра над акватoриями крупных рек и oзёр, а также на вершинах хoлмoв на 2-5 м/с выше, чем в oбычных услoвиях.
Атмoсфернoе давление в разных тoчках местнoсти мoжет значительнo oтличаться oт давления на метеoстанции, в зависимoсти oт услoвий рельефа (при пoдъёме на 10 м давление пoнижается примернo на 1 мм рт.ст.).